Lakeland, FL

7:07 AM EDT on August 25, 2016 (GMT -0400)
Lakeland Linder Regional

Weather History for KLAL - March, 2014

Change the Weather History Date:

Thursday, March 20, 2014

  Actual Average Record
Temperature  
Mean Temperature 68 °F -  
Max Temperature 78 °F 76 °F 89 °F (2002)
Min Temperature 57 °F 56 °F 46 °F (2005)
Cooling Degree Days 2    
Growing Degree Days 18 (Base 50)    
Moisture  
Dew Point 56 °F    
Average Humidity 79    
Maximum Humidity 100    
Minimum Humidity 39    
Precipitation  
Precipitation 0.00 in - - ()
Sea Level Pressure  
Sea Level Pressure 30.06 in    
Wind  
Wind Speed 4 mph (North)    
Max Wind Speed 13 mph    
Max Gust Speed -    
Visibility 10 miles    
Events      
Averages and records for this station are not official NWS values.
T = Trace of Precipitation, MM = Missing Value Source: NWS Daily Summary

Daily Weather History Graph

Daily Weather History Graph

Search for Another Location

Airport or City:

Trip Planner

Search our weather history database for the weather conditions in past years. The results will help you decide how hot, cold, wet, or windy it might be!

Date:

Astronomy

Mar. 20, 2014 Rise Set
Actual Time 7:31 AM EDT 7:39 PM EDT
Civil Twilight 7:08 AM EDT 8:02 PM EDT
Nautical Twilight 6:41 AM EDT 8:30 PM EDT
Astronomical Twilight 6:13 AM EDT 8:57 PM EDT
Moon 11:36 PM EDT (3/20) 9:57 AM EDT (3/20)
Length of Visible Light 12h 54m
Length of Day
12h 07m
Waning Gibbous, 84% of the Moon is Illuminated
Mar 20
Waning Gibbous
Mar 23
Last Quarter
Mar 30
New
Apr 7
First Quarter
Apr 15
Full

Hourly Weather History & Observations

Time (EDT) Temp. Dew Point Humidity Pressure Visibility Wind Dir Wind Speed Gust Speed Precip Events Conditions
12:15 AM 60.8 °F 55.4 °F 82% 30.08 in 10.0 mi Calm Calm - N/A   Clear
12:35 AM 59.0 °F 53.6 °F 82% 30.08 in 10.0 mi NNW 3.5 mph - N/A   Clear
12:55 AM 59.0 °F 55.4 °F 88% 30.08 in 10.0 mi NNW 4.6 mph - N/A   Clear
1:15 AM 59.0 °F 53.6 °F 82% 30.08 in 10.0 mi North 6.9 mph - N/A   Clear
1:35 AM 59.0 °F 55.4 °F 88% 30.07 in 10.0 mi North 6.9 mph - N/A   Clear
2:15 AM 59.0 °F 55.4 °F 88% 30.08 in 10.0 mi North 8.1 mph - N/A   Overcast
2:35 AM 59.0 °F 55.4 °F 88% 30.07 in 10.0 mi North 6.9 mph - N/A   Overcast
2:55 AM 59.0 °F 55.4 °F 88% 30.07 in 10.0 mi North 8.1 mph - N/A   Overcast
3:15 AM 59.0 °F 55.4 °F 88% 30.06 in 10.0 mi North 5.8 mph - N/A   Overcast
3:35 AM 57.2 °F 55.4 °F 94% 30.05 in 10.0 mi North 5.8 mph - N/A   Mostly Cloudy
3:55 AM 57.2 °F 55.4 °F 94% 30.04 in 10.0 mi North 4.6 mph - N/A   Mostly Cloudy
4:15 AM 57.2 °F 55.4 °F 94% 30.05 in 10.0 mi NNW 4.6 mph - N/A   Mostly Cloudy
4:35 AM 57.2 °F 55.4 °F 94% 30.04 in 7.0 mi North 3.5 mph - N/A   Mostly Cloudy
4:55 AM 57.2 °F 55.4 °F 94% 30.04 in 10.0 mi North 3.5 mph - N/A   Mostly Cloudy
5:15 AM 57.2 °F 55.4 °F 94% 30.04 in 7.0 mi North 4.6 mph - N/A   Mostly Cloudy
5:35 AM 57.2 °F 55.4 °F 94% 30.04 in 7.0 mi North 3.5 mph - N/A   Overcast
5:56 AM 57.2 °F 57.2 °F 100% 30.05 in 7.0 mi North 5.8 mph - N/A   Mostly Cloudy
6:58 AM 57.2 °F 57.2 °F 100% 30.06 in 5.0 mi NNE 4.6 mph - N/A   Overcast
7:50 AM 59.0 °F 59.0 °F 100% 30.08 in 5.0 mi NNE 4.6 mph - N/A   Mostly Cloudy
8:05 AM 59.0 °F 59.0 °F 100% 30.07 in 5.0 mi NE 4.6 mph - N/A   Mostly Cloudy
8:50 AM 60.8 °F 60.8 °F 100% 30.10 in 7.0 mi North 4.6 mph - N/A   Overcast
9:50 AM 64.4 °F 59.0 °F 83% 30.09 in 12.0 mi NE 4.6 mph - N/A   Scattered Clouds
10:50 AM 68.0 °F 57.2 °F 68% 30.10 in 12.0 mi NE 8.1 mph - N/A   Mostly Cloudy
11:50 AM 73.4 °F 59.0 °F 61% 30.11 in 10.0 mi NNE 6.9 mph - N/A   Mostly Cloudy
1:50 PM 75.2 °F 57.2 °F 53% 30.04 in 15.0 mi NNE 4.6 mph - N/A   Mostly Cloudy
2:50 PM 75.2 °F 57.2 °F 53% 30.04 in 15.0 mi NNE 4.6 mph - N/A   Mostly Cloudy
3:50 PM 77.0 °F 55.4 °F 47% 30.00 in 15.0 mi Calm Calm - N/A   Mostly Cloudy
4:55 PM 77.0 °F 51.8 °F 41% 29.99 in 15.0 mi Calm Calm - N/A   Scattered Clouds
5:50 PM 78.8 °F 51.8 °F 39% 29.98 in 15.0 mi Calm Calm - N/A   Partly Cloudy
6:50 PM 78.8 °F 51.8 °F 39% 29.98 in 15.0 mi Calm Calm - N/A   Clear
7:50 PM 69.8 °F 57.2 °F 64% 30.01 in 15.0 mi NW 12.7 mph - N/A   Clear
8:50 PM 66.2 °F 57.2 °F 73% 30.03 in 10.0 mi NNW 9.2 mph - N/A   Clear
9:50 PM 64.4 °F 57.2 °F 77% 30.05 in 10.0 mi North 4.6 mph - N/A   Clear
10:15 PM 62.6 °F 55.4 °F 77% 30.06 in 10.0 mi North 4.6 mph - N/A   Clear
10:35 PM 62.6 °F 55.4 °F 77% 30.07 in 10.0 mi NNW 4.6 mph - N/A   Clear
10:55 PM 62.6 °F 55.4 °F 77% 30.06 in 10.0 mi NNW 5.8 mph - N/A   Scattered Clouds
11:15 PM 62.6 °F 55.4 °F 77% 30.07 in 10.0 mi NNW 3.5 mph - N/A   Overcast
11:35 PM 62.6 °F 55.4 °F 77% 30.07 in 10.0 mi NNW 6.9 mph - N/A   Overcast
11:55 PM 62.6 °F 55.4 °F 77% 30.07 in 10.0 mi NNW 4.6 mph - N/A   Overcast